FENGYUN 3E

Last updated on Wed Sep 23 2026 00:03:10 GMT+0000 (Coordinated Universal Time)

1 49008U 21062A 26265.58674794 -.00000121 00000+0 -36040-4 0 9995 2 49008 98.7556 267.9326 0002059 133.2973 226.8376 14.19910674270401
UTC large
Height (km)
Speed (km/s)
/
Latitude / Longitude
Inclination (degrees)
Orbital Period (minutes)
Azimuth
Elevation
Range (km)
Doppler Factor

Next 0 passes for location: London (51.5072 / 0.1276)

No passes found over London.
FENGYUN 3E